• In Kazakhstan
  • List of Countries
  • For 7 days
  • Water Temperature
  • Satellite Maps
  • Weather Map
  • News
  • Weather Widgets
  • user-avatar
    Login

    Hourly Weather Kalnikow

    Today, 20 February, Wednesday

    Time Temperature Precipitation Wind Pressure Humidity
    00:00 +4°C° 0 mm 4 mps 744 mmHg 82%
    01:00 +4°C° 0 mm 4 mps 744 mmHg 84%
    02:00 +4°C° 0 mm 2 mps 744 mmHg 89%
    03:00 +3°C° 0.3 mm 3 mps 744 mmHg 90%
    04:00 +3°C° 0.3 mm 4 mps 744 mmHg 90%
    05:00 +3°C° 0.3 mm 5 mps 744 mmHg 91%
    06:00 +2°C° 0 mm 5 mps 744 mmHg 91%
    07:00 +3°C° 0 mm 4 mps 744 mmHg 91%
    08:00 +3°C° 0 mm 4 mps 744 mmHg 92%
    09:00 +2°C° 0 mm 5 mps 745 mmHg 87%
    10:00 +3°C° 0 mm 6 mps 745 mmHg 82%
    11:00 +4°C° 0 mm 6 mps 745 mmHg 76%
    12:00 +4°C° 0.1 mm 6 mps 745 mmHg 73%
    13:00 +4°C° 0.1 mm 7 mps 746 mmHg 69%
    14:00 +5°C° 0 mm 7 mps 746 mmHg 62%
    15:00 +5°C° 0.1 mm 7 mps 746 mmHg 62%
    16:00 +5°C° 0.1 mm 6 mps 746 mmHg 63%
    17:00 +4°C° 0.1 mm 6 mps 746 mmHg 63%
    18:00 +4°C° 0 mm 6 mps 746 mmHg 66%
    19:00 +3°C° 0 mm 5 mps 747 mmHg 69%
    20:00 +3°C° 0 mm 5 mps 747 mmHg 71%
    21:00 +3°C° 0 mm 5 mps 747 mmHg 73%
    22:00 +3°C° 0 mm 4 mps 748 mmHg 76%
    23:00 +3°C° 0 mm 4 mps 748 mmHg 78%

    Tomorrow, 21 February, Thursday

    Time Temperature Precipitation Wind Pressure Humidity
    00:00 +3°C° 0 mm 4 mps 748 mmHg 80%
    01:00 +3°C° 0 mm 4 mps 749 mmHg 83%
    02:00 +1°C° 0 mm 4 mps 749 mmHg 86%
    03:00 +1°C° 0 mm 4 mps 749 mmHg 88%
    04:00 0°C° 0 mm 4 mps 749 mmHg 89%
    05:00 0°C° 0 mm 4 mps 749 mmHg 91%
    06:00 0°C° 0 mm 4 mps 750 mmHg 90%
    07:00 0°C° 0 mm 4 mps 750 mmHg 90%
    08:00 +1°C° 0 mm 4 mps 750 mmHg 89%
    09:00 +1°C° 0.1 mm 5 mps 750 mmHg 86%
    10:00 +2°C° 0.1 mm 5 mps 750 mmHg 83%
    11:00 +3°C° 0.1 mm 5 mps 750 mmHg 80%
    12:00 +5°C° 0 mm 5 mps 750 mmHg 76%
    13:00 +5°C° 0 mm 6 mps 750 mmHg 72%
    14:00 +7°C° 0 mm 6 mps 749 mmHg 68%
    15:00 +7°C° 0 mm 5 mps 749 mmHg 69%
    16:00 +6°C° 0 mm 4 mps 749 mmHg 70%
    17:00 +7°C° 0 mm 3 mps 748 mmHg 71%
    18:00 +6°C° 0.1 mm 4 mps 748 mmHg 73%
    19:00 +5°C° 0.1 mm 4 mps 748 mmHg 75%
    20:00 +5°C° 0.1 mm 4 mps 748 mmHg 77%
    21:00 +5°C° 0.6 mm 4 mps 747 mmHg 80%
    22:00 +5°C° 0.6 mm 5 mps 747 mmHg 82%
    23:00 +5°C° 0.6 mm 5 mps 747 mmHg 85%

    Day after tomorrow, 22 February, Friday

    Time Temperature Precipitation Wind Pressure Humidity
    00:00 +5°C° 0.8 mm 5 mps 746 mmHg 86%
    01:00 +3°C° 0.8 mm 5 mps 746 mmHg 87%
    02:00 +3°C° 0.8 mm 5 mps 746 mmHg 88%
    03:00 +3°C° 0.6 mm 5 mps 745 mmHg 88%
    04:00 +3°C° 0.6 mm 5 mps 745 mmHg 89%
    05:00 +3°C° 0.6 mm 5 mps 745 mmHg 90%
    06:00 +2°C° 0.9 mm 6 mps 745 mmHg 90%
    07:00 +1°C° 0.9 mm 6 mps 746 mmHg 90%
    08:00 -1°C° 0.9 mm 7 mps 746 mmHg 90%
    09:00 -2°C° 0.3 mm 7 mps 747 mmHg 86%
    10:00 -3°C° 0.3 mm 7 mps 749 mmHg 81%
    11:00 -4°C° 0.3 mm 6 mps 750 mmHg 77%
    12:00 -4°C° 0 mm 6 mps 751 mmHg 71%
    13:00 -4°C° 0 mm 6 mps 752 mmHg 65%
    14:00 -3°C° 0 mm 6 mps 753 mmHg 59%
    15:00 -4°C° 0 mm 6 mps 754 mmHg 59%
    16:00 -5°C° 0 mm 6 mps 754 mmHg 59%
    17:00 -5°C° 0 mm 6 mps 755 mmHg 59%
    18:00 -6°C° 0 mm 5 mps 756 mmHg 59%
    19:00 -6°C° 0 mm 5 mps 756 mmHg 59%
    20:00 -7°C° 0 mm 5 mps 757 mmHg 59%
    21:00 -7°C° 0 mm 5 mps 758 mmHg 56%
    22:00 -7°C° 0 mm 5 mps 758 mmHg 53%
    23:00 -7°C° 0 mm 5 mps 759 mmHg 49%

    23 February, Saturday

    Time Temperature Precipitation Wind Pressure Humidity
    00:00 -7°C° 0 mm 5 mps 759 mmHg 49%
    01:00 -7°C° 0 mm 5 mps 759 mmHg 49%
    02:00 -8°C° 0 mm 5 mps 760 mmHg 49%
    03:00 -8°C° 0 mm 5 mps 760 mmHg 49%
    04:00 -8°C° 0 mm 5 mps 760 mmHg 50%
    05:00 -8°C° 0 mm 4 mps 760 mmHg 51%
    06:00 -8°C° 0 mm 4 mps 760 mmHg 52%
    07:00 -8°C° 0 mm 4 mps 761 mmHg 53%
    08:00 -7°C° 0 mm 3 mps 761 mmHg 54%
    09:00 -8°C° 0 mm 4 mps 761 mmHg 51%
    10:00 -7°C° 0 mm 4 mps 762 mmHg 49%
    11:00 -7°C° 0 mm 4 mps 762 mmHg 46%
    12:00 -5°C° 0 mm 4 mps 762 mmHg 44%
    13:00 -4°C° 0 mm 4 mps 762 mmHg 42%
    14:00 -4°C° 0 mm 4 mps 762 mmHg 39%
    15:00 -4°C° 0 mm 4 mps 762 mmHg 40%
    16:00 -4°C° 0 mm 4 mps 761 mmHg 40%
    17:00 -4°C° 0 mm 4 mps 761 mmHg 40%
    18:00 -5°C° 0 mm 3 mps 762 mmHg 43%
    19:00 -5°C° 0 mm 3 mps 762 mmHg 46%
    20:00 -4°C° 0 mm 2 mps 762 mmHg 48%
    21:00 -4°C° 0 mm 2 mps 762 mmHg 48%
    22:00 -4°C° 0 mm 2 mps 762 mmHg 48%
    23:00 -2°C° 0 mm 1 mps 762 mmHg 48%

    24 February, Sunday

    Time Temperature Precipitation Wind Pressure Humidity
    00:00 -2°C° 0 mm 1 mps 762 mmHg 48%
    01:00 -3°C° 0 mm 1 mps 761 mmHg 49%
    02:00 -3°C° 0 mm 1 mps 761 mmHg 49%
    03:00 -3°C° 0 mm 1 mps 761 mmHg 49%
    04:00 -5°C° 0 mm 2 mps 761 mmHg 48%
    05:00 -5°C° 0 mm 2 mps 760 mmHg 48%
    06:00 -5°C° 0 mm 2 mps 760 mmHg 47%
    07:00 -4°C° 0 mm 2 mps 760 mmHg 46%
    08:00 -4°C° 0 mm 2 mps 760 mmHg 44%
    09:00 -4°C° 0 mm 3 mps 760 mmHg 40%
    10:00 -2°C° 0 mm 3 mps 760 mmHg 36%
    11:00 -1°C° 0 mm 3 mps 760 mmHg 32%
    12:00 0°C° 0 mm 3 mps 759 mmHg 33%
    13:00 0°C° 0 mm 3 mps 758 mmHg 33%
    14:00 0°C° 0 mm 4 mps 758 mmHg 34%
    15:00 +1°C° 0 mm 3 mps 757 mmHg 36%
    16:00 +1°C° 0 mm 3 mps 757 mmHg 39%
    17:00 +1°C° 0 mm 3 mps 757 mmHg 41%
    18:00 +1°C° 0 mm 3 mps 756 mmHg 45%
    19:00 0°C° 0 mm 4 mps 756 mmHg 48%
    20:00 -1°C° 0 mm 4 mps 756 mmHg 51%
    21:00 -1°C° 0.1 mm 4 mps 756 mmHg 55%
    22:00 -1°C° 0.1 mm 4 mps 755 mmHg 59%
    23:00 -1°C° 0.1 mm 5 mps 755 mmHg 63%

    25 February, Monday

    Time Temperature Precipitation Wind Pressure Humidity
    00:00 -1°C° 0 mm 5 mps 754 mmHg 67%
    01:00 -1°C° 0 mm 5 mps 754 mmHg 71%
    02:00 -2°C° 0 mm 6 mps 753 mmHg 75%
    03:00 -2°C° 0.1 mm 6 mps 753 mmHg 80%
    04:00 -2°C° 0.1 mm 6 mps 753 mmHg 85%
    05:00 -1°C° 0.1 mm 6 mps 752 mmHg 90%
    06:00 -1°C° 0.1 mm 6 mps 753 mmHg 89%
    07:00 -1°C° 0.1 mm 6 mps 753 mmHg 88%
    08:00 0°C° 0.1 mm 5 mps 753 mmHg 87%
    09:00 -1°C° 0 mm 6 mps 753 mmHg 83%
    10:00 -1°C° 0 mm 7 mps 753 mmHg 80%
    11:00 -1°C° 0 mm 7 mps 753 mmHg 76%
    12:00 0°C° 0 mm 8 mps 753 mmHg 72%
    13:00 +1°C° 0 mm 8 mps 753 mmHg 68%
    14:00 +1°C° 0 mm 8 mps 752 mmHg 63%
    15:00 +2°C° 0 mm 7 mps 752 mmHg 64%
    16:00 +2°C° 0 mm 7 mps 752 mmHg 65%
    17:00 +1°C° 0 mm 6 mps 752 mmHg 66%
    18:00 +1°C° 0 mm 6 mps 752 mmHg 67%
    19:00 0°C° 0 mm 5 mps 753 mmHg 69%
    20:00 0°C° 0 mm 5 mps 753 mmHg 70%
    21:00 -1°C° 0 mm 5 mps 753 mmHg 74%
    22:00 -1°C° 0 mm 5 mps 753 mmHg 77%
    23:00 -2°C° 0 mm 4 mps 754 mmHg 80%
    Show more